This demonstration page uses our WeatherBlox Daily Observations layout. Learn more.

Left ArrowRight Arrow

41.86663, -103.66717

Hourly Observations for December 29, 2020

Temp ( °F °C ) Dew Point ( °F °C ) Humidity (%) Winds ( mph kmh ) Pressure ( in mb ) Visibility ( mi km ) Precip ( " mm )
12:09 am 00:09 Cloudy with Light Snow 29 -1.7 25 -3.9 85 85 SE 17 28 30.06 1018 1 2 0.01 0.25
12:27 am 00:27 Cloudy with Light Snow 29 -1.7 25 -3.9 85 85 SE 17 28 30.05 1018 1 1 0.02 0.51
12:37 am 00:37 Cloudy with Light Snow 28 -2.2 25 -3.9 88 88 SE 16 26 30.05 1017 1 2 0.03 0.76
12:53 am 00:53 Cloudy with Light Snow 28 -2.2 24 -4.4 85 85 SE 16 26 29.96 1015 1 2 0.04 1.02
1:17 am 01:17 Cloudy with Light Snow 28 -2.2 24 -4.4 85 85 SE 13 20 30.06 1018 2 3 0.00 0.00
1:37 am 01:37 Cloudy with Light Snow 28 -2.2 24 -4.4 85 85 SE 15 24 30.04 1017 2 2 0.01 0.25
1:53 am 01:53 Cloudy with Light Snow 27 -2.8 23 -5 85 85 SE 13 20 29.95 1014 1 2 0.02 0.51
2:16 am 02:16 Cloudy with Light Snow 27 -2.8 23 -5 85 85 SE 15 24 30.05 1017 3 5 0.01 0.25
2:53 am 02:53 Cloudy 27 -2.8 22 -5.6 81 81 SE 16 26 29.93 1014 10 16 0.01 0.25
3:53 am 03:53 Cloudy 27 -2.8 22 -5.6 81 81 ESE 24 39 29.85 1011 10 16 0.00 0.00
4:20 am 04:20 Cloudy with Light Snow 27 -2.8 22 -5.6 81 81 SSE 13 20 29.99 1015 4 6 0.00 0.00
4:53 am 04:53 Cloudy 28 -2.2 22 -5.6 78 78 SE 6 9 29.92 1013 10 16 0.00 0.00
5:02 am 05:02 Cloudy 28 -2 21 -6 74 74 SE 5 7 29.98 1015 10 16 0.00 0.00
5:53 am 05:53 Cloudy 27 -2.8 22 -5.6 81 81 ESE 10 17 29.90 1013 10 16 0.00 0.00
6:53 am 06:53 Cloudy 27 -2.8 22 -5.6 81 81 ESE 13 20 29.89 1012 8 13 0.00 0.00
7:53 am 07:53 Cloudy with Light Snow 27 -2.8 22 -5.6 81 81 ESE 12 19 29.89 1012 2 3 0.00 0.00
8:01 am 08:01 Cloudy with Light Snow 27 -2.8 22 -5.6 81 81 ESE 12 19 29.97 1015 2 3 0.00 0.00
8:10 am 08:10 Cloudy with Light Snow 27 -2.8 22 -5.6 81 81 ESE 12 19 29.97 1015 3 4 0.00 0.00
8:17 am 08:17 Cloudy with Light Snow 27 -2.8 22 -5.6 81 81 ESE 12 19 29.98 1015 4 6 0.00 0.00
8:26 am 08:26 Cloudy with Light Snow 27 -2.8 22 -5.6 81 81 ESE 10 17 29.98 1015 2 3 0.00 0.00
8:42 am 08:42 Cloudy with Light Snow 27 -2.8 23 -5 85 85 ESE 7 11 29.99 1015 1 1 0.00 0.00
8:53 am 08:53 Cloudy with Light Snow 27 -2.8 23 -5 85 85 ENE 5 7 29.91 1013 1 1 0.01 0.25
9:00 am 09:00 Cloudy with Light Snow 27 -2.8 23 -5 85 85 E 3 6 30.00 1016 1 1 0.00 0.00
9:06 am 09:06 Cloudy with Light Snow 27 -2.8 23 -5 85 85 ESE 5 7 30.00 1016 1 2 0.00 0.00
9:12 am 09:12 Cloudy with Light Snow 27 -2.8 23 -5 85 85 ESE 3 6 30.00 1016 2 3 0.00 0.00
9:20 am 09:20 Cloudy with Mist and Fog 27 -3 23 -5 86 86 Calm 30.01 1016 6 10 0.00 0.00
9:37 am 09:37 Cloudy 29 -1.7 24 -4.4 82 82 Calm 29.99 1016 7 11 0.00 0.00
9:53 am 09:53 Cloudy 29 -1.7 24 -4.4 82 82 W 7 11 29.93 1014 8 13 0.00 0.00
10:12 am 10:12 Cloudy 30 -1.1 24 -4.4 79 79 WNW 9 15 29.99 1016 7 11 0.00 0.00
10:48 am 10:48 Cloudy with Light Snow 30 -1 25 -4 80 80 NW 16 26 29.98 1015 6 10 0.00 0.00
10:53 am 10:53 Cloudy 31 -0.6 23 -5 72 72 WNW 15 24 29.92 1013 9 14 0.00 0.00
11:53 am 11:53 Cloudy 31 -0.6 22 -5.6 69 69 WNW 15 24 29.92 1013 10 16 0.00 0.00
12:53 pm 12:53 Cloudy 32 0 23 -5 69 69 NW 25 41 29.92 1013 10 16 0.00 0.00
1:51 pm 13:51 Partly Cloudy 30 -1 21 -6 69 69 NW 13 20 30.00 1016 10 16 0.00 0.00
1:53 pm 13:53 Mostly Sunny 31 -0.6 22 -5.6 69 69 NW 14 22 29.95 1014 10 16 0.00 0.00
2:53 pm 14:53 Sunny 29 -1.7 17 -8.3 61 61 WNW 20 31 29.98 1015 10 16 0.00 0.00
3:53 pm 15:53 Sunny 29 -1.7 18 -7.8 63 63 WNW 15 24 30.02 1017 10 16 0.00 0.00
4:53 pm 16:53 Clear 26 -3.3 17 -8.3 69 69 WNW 12 19 30.06 1018 10 16 0.00 0.00
5:53 pm 17:53 Clear 25 -3.9 16 -8.9 69 69 WNW 12 19 30.11 1020 10 16 0.00 0.00
6:53 pm 18:53 Clear 24 -4.4 15 -9.4 68 68 WNW 13 20 30.14 1021 10 16 0.00 0.00
7:53 pm 19:53 Clear 18 -7.8 12 -11.1 77 77 WNW 6 9 30.19 1022 10 16 0.00 0.00
8:53 pm 20:53 Clear 15 -9.4 10 -12.2 80 80 WNW 8 13 30.22 1023 10 16 0.00 0.00
9:53 pm 21:53 Clear 13 -10.6 8 -13.3 81 81 NW 8 13 30.23 1024 10 16 0.00 0.00
10:53 pm 22:53 Clear 10 -12.2 5 -15 80 80 NW 6 9 30.23 1024 10 16 0.00 0.00
11:53 pm 23:53 Clear 7 -13.9 3 -16.1 84 84 NNW 7 11 30.24 1024 10 16 0.00 0.00

Powered by AerisWeather